Breckenridge, TX

3:41 AM CST on February 06, 2016 (GMT -0600)
Stephens County

Weather History for KBKD - July, 2013

Change the Weather History Date:

Saturday, July 6, 2013

  Actual Average (KABI) Record (KABI)
Temperature  
Mean Temperature 87 °F 82 °F  
Max Temperature 99 °F 93 °F 103 °F (1978)
Min Temperature 76 °F 71 °F 62 °F (1972)
Degree Days  
Heating Degree Days 0 0  
Month to date heating degree days 0  
Since 1 June heating degree days 1  
Since 1 July heating degree days 0  
Cooling Degree Days 22 17  
Month to date cooling degree days 102  
Year to date cooling degree days 934  
Since 1 June cooling degree days 537  
Growing Degree Days 37 (Base 50)    
Moisture  
Dew Point 54 °F    
Average Humidity 34    
Maximum Humidity 59    
Minimum Humidity 19    
Precipitation  
Precipitation 0.00 in 0.07 in 5.67 in (2002)
Month to date precipitation 0.42  
Year to date precipitation 12.92  
Sea Level Pressure  
Sea Level Pressure 29.91 in    
Wind  
Wind Speed 11 mph (SSE)    
Max Wind Speed 17 mph    
Max Gust Speed 24 mph    
Visibility 10 miles    
Events      
T = Trace of Precipitation, MM = Missing Value Source: NWS Daily Summary

Daily Weather History Graph

Daily Weather History Graph

Search for Another Location

Airport or City:

Trip Planner

Search our weather history database for the weather conditions in past years. The results will help you decide how hot, cold, wet, or windy it might be!

Date:

Astronomy

Jul. 06, 2013 Rise Set
Actual Time 6:33 AM CDT 8:46 PM CDT
Civil Twilight 6:05 AM CDT 9:15 PM CDT
Nautical Twilight 5:30 AM CDT 9:49 PM CDT
Astronomical Twilight 4:53 AM CDT 10:27 PM CDT
Moon 5:18 AM CDT 7:32 PM CDT
Length of Visible Light 15h 09m
Length of Day
14h 13m
Waning Crescent, 2% of the Moon is Illuminated
Jul 6
Waning Crescent
Jul 8
New
Jul 15
First Quarter
Jul 22
Full
Jul 29
Last Quarter

Hourly Weather History & Observations

Time (CDT) Temp. Heat Index Dew Point Humidity Pressure Visibility Wind Dir Wind Speed Gust Speed Precip Events Conditions
12:15 AM 82.2 °F - 50.0 °F 33% 29.93 in 10.0 mi SSE 5.8 mph - N/A   Clear
12:35 AM 82.4 °F - 50.4 °F 33% 29.93 in 10.0 mi SSE 9.2 mph - N/A   Clear
12:55 AM 82.4 °F - 50.9 °F 33% 29.93 in 10.0 mi SSE 10.4 mph - N/A   Clear
1:15 AM 82.8 °F - 51.4 °F 34% 29.93 in 10.0 mi SSE 12.7 mph 18.4 mph N/A   Clear
1:35 AM 83.3 °F - 52.0 °F 34% 29.93 in 10.0 mi SSE 13.8 mph 20.7 mph N/A   Clear
1:55 AM 82.9 °F - 52.7 °F 35% 29.93 in 10.0 mi SSE 12.7 mph 19.6 mph N/A   Clear
2:15 AM 82.4 °F 81.4 °F 53.6 °F 37% 29.93 in 10.0 mi SSE 11.5 mph - N/A   Clear
2:35 AM 81.9 °F 81.2 °F 54.5 °F 39% 29.93 in 10.0 mi SSE 13.8 mph 17.3 mph N/A   Clear
2:55 AM 81.7 °F 81.2 °F 54.9 °F 40% 29.93 in 10.0 mi SSE 13.8 mph - N/A   Clear
3:15 AM 81.3 °F 81.0 °F 55.4 °F 41% 29.92 in 10.0 mi SSE 12.7 mph 19.6 mph N/A   Clear
3:35 AM 80.8 °F 80.8 °F 56.1 °F 43% 29.92 in 10.0 mi SSE 12.7 mph - N/A   Clear
3:55 AM 80.6 °F 80.8 °F 57.2 °F 45% 29.93 in 10.0 mi SSE 10.4 mph 16.1 mph N/A   Clear
4:15 AM 80.2 °F 80.6 °F 57.7 °F 46% 29.93 in 10.0 mi SSE 11.5 mph - N/A   Clear
4:35 AM 79.9 °F - 58.1 °F 47% 29.93 in 10.0 mi SSE 11.5 mph 16.1 mph N/A   Clear
4:55 AM 79.7 °F - 58.5 °F 48% 29.92 in 10.0 mi SSE 11.5 mph 17.3 mph N/A   Clear
5:15 AM 79.2 °F - 59.0 °F 50% 29.92 in 10.0 mi South 9.2 mph - N/A   Clear
5:35 AM 78.1 °F - 59.2 °F 52% 29.93 in 10.0 mi South 8.1 mph - N/A   Clear
5:55 AM 77.2 °F - 59.4 °F 54% 29.93 in 10.0 mi South 8.1 mph - N/A   Clear
6:15 AM 76.3 °F - 59.9 °F 57% 29.93 in 10.0 mi South 8.1 mph - N/A   Clear
6:35 AM 76.1 °F - 59.9 °F 57% 29.93 in 10.0 mi South 6.9 mph - N/A   Clear
6:55 AM 76.1 °F - 59.9 °F 57% 29.93 in 10.0 mi South 8.1 mph - N/A   Clear
7:15 AM 76.5 °F - 60.8 °F 58% 29.93 in 10.0 mi South 9.2 mph - N/A   Clear
7:35 AM 77.2 °F - 61.7 °F 59% 29.94 in 10.0 mi South 10.4 mph - N/A   Clear
7:55 AM 78.4 °F - 61.7 °F 56% 29.94 in 10.0 mi South 9.2 mph - N/A   Clear
8:15 AM 80.2 °F 81.3 °F 61.5 °F 53% 29.94 in 10.0 mi South 10.4 mph 16.1 mph N/A   Clear
8:35 AM 81.5 °F 82.0 °F 59.9 °F 48% 29.95 in 10.0 mi SSW 13.8 mph 18.4 mph N/A   Clear
8:55 AM 82.6 °F 82.6 °F 59.4 °F 45% 29.95 in 10.0 mi SSW 15.0 mph - N/A   Clear
9:15 AM 84.0 °F 83.8 °F 59.0 °F 43% 29.95 in 10.0 mi SSW 13.8 mph - N/A   Clear
9:35 AM 85.3 °F 84.6 °F 58.3 °F 40% 29.95 in 10.0 mi SSW 13.8 mph - N/A   Clear
9:55 AM 87.1 °F 86.1 °F 57.6 °F 37% 29.96 in 10.0 mi SSW 17.3 mph 20.7 mph N/A   Clear
10:15 AM 88.0 °F 86.5 °F 56.7 °F 34% 29.96 in 10.0 mi SSW 13.8 mph 19.6 mph N/A   Clear
10:35 AM 89.6 °F 88.1 °F 57.0 °F 33% 29.95 in 10.0 mi SSW 12.7 mph - N/A   Clear
10:55 AM 90.1 °F 88.6 °F 56.7 °F 32% 29.94 in 10.0 mi SSW 12.7 mph 19.6 mph N/A   Clear
11:15 AM 91.2 °F 89.4 °F 56.1 °F 30% 29.94 in 10.0 mi SSW 9.2 mph 16.1 mph N/A   Clear
11:35 AM 90.9 °F 88.9 °F 55.8 °F 30% 29.94 in 10.0 mi SSW 10.4 mph - N/A   Clear
11:55 AM 93.4 °F 91.5 °F 55.4 °F 28% 29.93 in 10.0 mi SSW 8.1 mph 16.1 mph N/A   Clear
12:15 PM 92.5 °F 90.4 °F 55.2 °F 28% 29.93 in 10.0 mi South 8.1 mph - N/A   Clear
12:35 PM 94.1 °F 91.9 °F 54.3 °F 26% 29.93 in 10.0 mi SSE 12.7 mph 18.4 mph N/A   Clear
12:55 PM 94.8 °F 92.5 °F 53.4 °F 25% 29.92 in 10.0 mi South 15.0 mph 19.6 mph N/A   Clear
1:15 PM 94.8 °F - 51.8 °F 23% 29.91 in 10.0 mi SSE 16.1 mph - N/A   Clear
1:35 PM 94.3 °F - 50.2 °F 22% 29.91 in 10.0 mi SE 11.5 mph 18.4 mph N/A   Clear
1:55 PM 95.9 °F - 51.3 °F 22% 29.91 in 10.0 mi SE 15.0 mph 19.6 mph N/A   Clear
2:15 PM 94.5 °F - 51.3 °F 23% 29.90 in 10.0 mi SSE 16.1 mph 20.7 mph N/A   Clear
2:35 PM 94.6 °F - 51.4 °F 23% 29.89 in 10.0 mi SSE 9.2 mph - N/A   Clear
2:55 PM 96.3 °F - 51.1 °F 22% 29.89 in 10.0 mi SE 12.7 mph 18.4 mph N/A   Clear
3:15 PM 95.5 °F - 52.2 °F 23% 29.89 in 10.0 mi SE 10.4 mph 18.4 mph N/A   Clear
3:35 PM 96.3 °F - 51.4 °F 22% 29.88 in 10.0 mi South 10.4 mph 18.4 mph N/A   Clear
3:55 PM 98.8 °F - 49.3 °F 19% 29.88 in 10.0 mi SE 12.7 mph 19.6 mph N/A   Clear
4:15 PM 98.4 °F - 49.1 °F 19% 29.87 in 10.0 mi SE 16.1 mph 24.2 mph N/A   Clear
4:35 PM 97.9 °F - 50.2 °F 20% 29.86 in 10.0 mi SE 13.8 mph 23.0 mph N/A   Clear
4:55 PM 97.0 °F - 49.3 °F 20% 29.86 in 10.0 mi SSE 15.0 mph 21.9 mph N/A   Clear
5:15 PM 97.9 °F - 49.5 °F 19% 29.86 in 10.0 mi SSE 16.1 mph 23.0 mph N/A   Clear
5:35 PM 97.7 °F - 50.2 °F 20% 29.85 in 10.0 mi SE 13.8 mph 21.9 mph N/A   Clear
5:55 PM 96.3 °F - 50.0 °F 21% 29.84 in 10.0 mi SSE 15.0 mph 21.9 mph N/A   Clear
6:15 PM 96.3 °F - 49.5 °F 20% 29.84 in 10.0 mi SSE 12.7 mph 19.6 mph N/A   Clear
6:35 PM 96.1 °F - 49.1 °F 20% 29.84 in 10.0 mi SSE 10.4 mph 17.3 mph N/A   Clear
6:55 PM 96.1 °F - 48.2 °F 20% 29.84 in 10.0 mi South 15.0 mph 18.4 mph N/A   Clear
7:15 PM 95.7 °F - 49.3 °F 21% 29.85 in 10.0 mi SE 13.8 mph 19.6 mph N/A   Clear
7:35 PM 95.0 °F - 49.6 °F 21% 29.85 in 10.0 mi SSE 13.8 mph - N/A   Clear
7:55 PM 94.3 °F - 50.0 °F 22% 29.86 in 10.0 mi SSE 13.8 mph - N/A   Clear
8:15 PM 93.4 °F - 50.5 °F 23% 29.86 in 10.0 mi SSE 11.5 mph 17.3 mph N/A   Clear
8:35 PM 92.3 °F - 50.2 °F 24% 29.87 in 10.0 mi SSE 10.4 mph 16.1 mph N/A   Clear
8:55 PM 91.0 °F - 50.9 °F 25% 29.88 in 10.0 mi SSE 8.1 mph - N/A   Clear
9:15 PM 89.8 °F - 51.4 °F 27% 29.88 in 10.0 mi SSE 6.9 mph - N/A   Clear
9:35 PM 88.2 °F - 51.8 °F 29% 29.89 in 10.0 mi SE 6.9 mph - N/A   Clear
9:55 PM 87.1 °F - 51.8 °F 30% 29.90 in 10.0 mi SE 5.8 mph - N/A   Clear
10:15 PM 85.5 °F - 52.0 °F 31% 29.91 in 10.0 mi ESE 6.9 mph - N/A   Clear
10:35 PM 86.0 °F - 52.0 °F 31% 29.92 in 10.0 mi SE 8.1 mph - N/A   Clear
10:55 PM 85.1 °F - 51.8 °F 32% 29.93 in 10.0 mi ESE 6.9 mph - N/A   Clear
11:15 PM 84.6 °F - 52.3 °F 33% 29.93 in 10.0 mi SE 8.1 mph - N/A   Clear
11:35 PM 83.5 °F - 52.7 °F 34% 29.93 in 10.0 mi SE 5.8 mph - N/A   Clear
11:55 PM 82.8 °F 81.6 °F 53.1 °F 36% 29.94 in 10.0 mi SE 5.8 mph - N/A   Clear